カタログに戻る

COSMOS 2251 DEB

運用中LEO
NORAD 37101·DEBRIS·🇷🇺 Russia

打ち上げ Jun 16, 1993 から Plesetsk Cosmodrome

Loading…

次のパス (今後24時間)

TLE

最新Source: Space-Track

元期: Sep 14, 2026, 10:49 UTC

1 37101U 93036BFX 26257.45088754  .00003007  00000-0  52400-3 0  9990
2 37101  74.0295 281.9222 0045448 296.5608  63.0906 14.67827215697142

AllMySatでCOSMOS 2251 DEBをリアルタイム追跡

Download on the App Store